Regional Weather Roundup
Issued by NWS

Home | Current Version | Previous Version | Text Only | Print | Product List | Glossary On
Versions: 1 2 3 4 5 6 7 8 9 10 11 12 13 14 15 16 17 18 19 20 21 22 23 24 25 26 27 28 29 30 31 32 33 34 35 36 37 38 39 40 41 42 43 44 45 46 47 48 49 50
554
ASUS42 KTBW 240217
RWRFL
FLORIDA REGIONAL WEATHER ROUNDUP
NATIONAL WEATHER SERVICE TAMPA BAY RUSKIN FL
1000 PM EDT TUE MAY 23 2017

NOTE: "FAIR" INDICATES FEW OR NO CLOUDS BELOW 12,000 FEET WITH NO
SIGNIFICANT WEATHER AND/OR OBSTRUCTIONS TO VISIBILITY.

FLZ001>010-012>015-112-114-115-240300-
PANHANDLE FLORIDA

CITY           SKY/WX    TMP DP  RH WIND       PRES   REMARKS
PENSACOLA      MOCLDY    78  70  76 SW13      29.71R
PENSACOLA NAS  CLOUDY    77  70  79 SW16G25   29.71S
MILTON NAS     CLOUDY    75  72  90 S6        29.71
CRESTVIEW      MOCLDY    76  68  76 SW7       29.73F
DUKE FIELD     MOCLDY    75  69  81 SW8       29.73S
VALPARAISO     LGT RAIN  77  70  78 SW9       29.72S
MARY ESTHER    MOCLDY    77  70  77 SW7       29.71S
PANAMA CITY    CLOUDY    77  70  79 S7        29.73R
TYNDALL AFB    MOCLDY    78  71  79 SW15G24   29.75R
APALACHICOLA   CLOUDY    78  73  84 SW12      29.76R

STATION/POSITION SKY/WX   TEMP    WIND        PRES    WAVE   SWELL
                          AIR SEA DIR/SP/G            HT/PER HT/PER
                          (F)     (DEG/KT/KT) (MB)    (FT/S) (FT/S)
30.1N   87.6W              77 79  230/ 19/ 23 1005.5R   6/ 7
29.2N   88.2W              77 78  210/ 16/ 19 1006.5F   5/ 5
28.8N   86.0W              76 76  220/ 21/ 25 1006.7F   5/ 6
PANAMA CITY BEAC           78 80  230/ 15/ 17 1007.4R
TOWER C                    77     230/ 28/ 29 1008.4R
28.5N   84.5W              77 78  210/ 16/ 17 1009.0R   4/ 4

$$
FLZ011-016>038-118-127-128-134-139-239-240300-
NORTH FLORIDA

CITY           SKY/WX    TMP DP  RH WIND       PRES   REMARKS
MARIANNA       CLOUDY    76  69  79 SW10      29.71F
TALLAHASSEE    CLOUDY    75  71  87 S5        29.75R
PERRY          CLOUDY    78  73  86 SW6       29.78S
CROSS CITY     CLOUDY    77  75  94 SW9       29.79R
LAKE CITY      CLOUDY    70  70 100 W10       29.81R
GAINESVILLE    HVY RAIN  75  72  90 SW14G26   29.81S FOG
WILLISTON      PTCLDY    81  75  83 S10G17    29.81R
PALATKA        CLOUDY    81  73  78 SW3       29.82R
MAYPORT NAS    CLOUDY    78  73  84 W6        29.79S
JACKSONVILLE   TSTM      73  72  96 W13       29.80R FOG
JAX NAS        CLOUDY    76  73  91 SW6       29.80R
FERNANDINA BEA MOCLDY    79  72  78 W13G20    29.80R
ST AUGUSTINE   CLOUDY    81  71  71 SW9       29.81S
PALM COAST     FAIR      78  71  77 SW6       29.82S

STATION/POSITION SKY/WX   TEMP    WIND        PRES    WAVE   SWELL
                          AIR SEA DIR/SP/G            HT/PER HT/PER
                          (F)     (DEG/KT/KT) (MB)    (FT/S) (FT/S)
SHELL POINT      NOT AVBL
KEATON BEACH               79     240/ 18/ 21 1008.0R
CEDAR KEY                  81     230/ 14/ 22 1009.5R
FERNANDINA                 77 80  240/  8/ 13 1009.7R
30.7N   81.3W                 79                N/A     3/ 6
MAYPORT                    78 79  240/  8/  9 1009.2R
31.4N   80.9W              79 78  210/ 21/ 25 1006.9F   3/ 6   2/ 9
ST AUGUSTINE               81 78  210/  9/ 11 1010.1R

$$
FLZ040-043>046-052-053-057-058-063-144-240300-
INTERIOR CENTRAL FLORIDA

CITY           SKY/WX    TMP DP  RH WIND       PRES   REMARKS
OCALA          CLOUDY    80  73  79 S15       29.82F
THE VILLAGES     N/A     81  72  74 MISG      29.74R
LEESBURG       CLOUDY    81  70  69 SW8       29.84S
SANFORD        CLOUDY    82  68  62 SW8       29.83F
ORLANDO EXEC   CLOUDY    80  70  71 SW10      29.84F
ORLANDO INTL   CLOUDY    77  70  79 SW10      29.85S
KISSIMMEE      PTCLDY    81  70  69 SW9       29.86S
WINTER HAVEN   PTCLDY    80  69  69 SW9       29.87S
LAKELAND       CLEAR     79  72  78 SW9       29.86S
BARTOW         FAIR      79  70  73 MISG      29.87S
OKEECHOBEE     PTCLDY    77  70  78 SW5       29.89S

$$
FLZ041-047-054-059-064-141-147-240300-
EAST CENTRAL FLORIDA

CITY           SKY/WX    TMP DP  RH WIND       PRES   REMARKS
DAYTONA BEACH  CLOUDY    80  69  69 SW12      29.83S
DELAND         CLOUDY    82  68  61 SW10G17   29.82F
NEW SMYRNA BEA PTCLDY    81  68  65 SW8       29.84R
CAPE CANAVERAL CLOUDY    77  73  87 S5        29.84S
PATRICK AFB    PTCLDY    82  70  68 SW9       29.84F
MELBOURNE      CLOUDY    83  68  60 SW9       29.85F
VERO BEACH     MOCLDY    82  70  66 S8        29.88R
FT PIERCE      PTCLDY    82  71  69 S7        29.88R

STATION/POSITION SKY/WX   TEMP    WIND        PRES    WAVE   SWELL
                          AIR SEA DIR/SP/G            HT/PER HT/PER
                          (F)     (DEG/KT/KT) (MB)    (FT/S) (FT/S)
28.5N   80.2W              80 78  170/ 16/ 19 1011.7S   4/ 5   2/ 8
28.9N   78.5W              80 79  180/ 17/ 19 1011.5
TRIDENT PIER               80 82  190/  3/  3 1012.2S
28.4N   80.5W                 78                N/A     3/ 5
27.5N   80.2W                 77                N/A     4/ 5

$$
FLZ050-056-061-142-242-148-248-149-249-151-251-155-255-
160-260-240300-
WEST CENTRAL FLORIDA

CITY           SKY/WX    TMP DP  RH WIND       PRES   REMARKS
CRYSTAL RIVER  MOCLDY    81  73  78 S7        29.82S
INVERNESS      MOCLDY    79  73  83 SW6       29.83S
BROOKSVILLE    MOCLDY    79  73  82 S8        29.85S
CLEARWATER AIR MOCLDY    79  73  83 S12       29.85R
ST PETE CLEARW MOCLDY    81  73  76 S13       29.85S
TAMPA INTL     CLOUDY    82  73  74 S15       29.85F
TAMPA EXEC     CLOUDY    82  73  74 SW12      29.86S
PLANT CITY     CLOUDY    81  73  78 SW12G21   29.88S
MACDILL AFB    CLOUDY    81  77  87 S18       29.86R
PETER O KNIGHT CLOUDY    82  77  83 SW17      29.87R
ST PETERSBURG  MOCLDY    79  74  84 SW12G17   29.84R
SARASOTA       MOCLDY    81  74  79 SW15      29.85R
VENICE         MOCLDY    82  75  78 S12G18    29.88R

STATION/POSITION SKY/WX   TEMP    WIND        PRES    WAVE   SWELL
                          AIR SEA DIR/SP/G            HT/PER HT/PER
                          (F)     (DEG/KT/KT) (MB)    (FT/S) (FT/S)
27.3N   84.2W                 78                N/A     3/ 6
CLEARWATER BEACH           81 83  190/ 20/ 25 1010.6S
MIDDLE TAMPA BAY           81     220/ 18/ 22 1011.3R
VENICE                     81 85  210/ 13/ 16 1011.6R

$$
FLZ066-069-070-075>078-162-262-165-265-240300-
SOUTHWEST FLORIDA AND KEYS

CITY           SKY/WX    TMP DP  RH WIND       PRES   REMARKS
PUNTA GORDA    CLOUDY    79  72  79 S7        29.89S
FT MYERS       CLOUDY    81  73  76 S6        29.88S
SOUTHWEST INTL MOCLDY    80  72  76 S7        29.89S
NAPLES         PTCLDY    81  73  76 S5        29.89S
MARCO ISLAND   CLOUDY    79  72  78 S6        29.90R
IMMOKALEE      FAIR      79  72  78 S3        29.91R
MARATHON       CLEAR     83  76  79 SE7       29.92R
KEY WEST NAS   MOCLDY    81  76  84 SE15      29.91R
KEY WEST INTL  PTCLDY    82  76  81 SE13      29.91R

STATION/POSITION SKY/WX   TEMP    WIND        PRES    WAVE   SWELL
                          AIR SEA DIR/SP/G            HT/PER HT/PER
                          (F)     (DEG/KT/KT) (MB)    (FT/S) (FT/S)
NAPLES                        85  190/ 11/ 13 1012.1R
DRY TORTUGAS               81     150/ 11/ 12 1012.5R
SAND KEY                   81     150/ 13/ 15 1013.3R
LONG KEY                   81 84  150/ 10/ 11 1012.9R

$$
FLZ067-068-071>074-168-172>174-240300-
SOUTHEAST FLORIDA

CITY           SKY/WX    TMP DP  RH WIND       PRES   REMARKS
W PALM BEACH   PTCLDY    78  72  81 S5        29.90F
BOCA RATON     PTCLDY    81  72  74 S7        29.91S
FT LAUDER-EXEC CLEAR     84  70  62 S7        29.91R
FT LAUDERDALE  MOCLDY    82  73  74 S6        29.91R
POMPANO BEACH  CLEAR     82  72  71 S9        29.91R
PEMBROKE PINES CLEAR     82  72  71 S7        29.93R
OPA LOCKA      PTCLDY    82  74  76 S7        29.92S
MIAMI          PTCLDY    82  72  71 VRB7      29.92S
WEST KENDALL   CLEAR     81  72  74 S6        29.92R
HOMESTEAD      CLEAR     78  75  93 S5        29.91S

STATION/POSITION SKY/WX   TEMP    WIND        PRES    WAVE   SWELL
                          AIR SEA DIR/SP/G            HT/PER HT/PER
                          (F)     (DEG/KT/KT) (MB)    (FT/S) (FT/S)
PORT EVERGLADES            81     190/  6/  9 1013.1R
VIRGINIA KEY                      160/  7/  9 1012.6R
LAKE WORTH                 80 82              1013.4S
FOWEY ROCKS                80 80  160/ 13/ 14 1014.0R
SETTLEMENT POINT           80     190/ 13/ 15 1013.5R

$$





USA.gov is the U.S. government's official web portal to all federal, state and local government web resources and services.